FW0822 Weather Reports


Display with metric or nautical units.
time (UTC)temp
F
wind
direction
speed
MPH
gust
MPH
rain 1hr
in
rain 24hr
in
rain mn
in
humidity
%
barometer
mb
20260503031519 49 240 0.0 0.0 0.00 0.00 0.00 65 1016.4
20260503030120 49 240 0.0 0.0 0.00 0.00 0.00 65 1016.4
20260503024518 49 240 0.0 0.0 0.00 0.00 0.00 65 1016.2
20260503023017 50 240 0.0 0.0 0.00 0.00 0.00 66 1016.1
20260503021515 50 240 0.0 0.0 0.00 0.00 0.00 67 1016.0
20260503020051 51 240 0.0 0.0 0.00 0.00 0.00 67 1015.9
20260503014548 52 240 0.0 0.0 0.00 0.00 0.00 66 1015.8
20260503011544 53 240 0.0 0.0 0.00 0.00 0.00 63 1015.1
20260503010041 54 240 0.0 0.0 0.00 0.00 0.00 62 1014.8
20260503004544 54 240 0.0 0.0 0.00 0.00 0.00 60 1014.7
20260503001545 56 240 0.0 0.0 0.00 0.00 0.00 59 1014.4
20260503000044 56 240 0.0 0.0 0.00 0.00 0.00 58 1014.2
20260502234540 56 155 0.0 0.0 0.00 0.00 0.00 55 1014.0
20260502231557 57 155 0.0 0.0 0.00 0.00 0.00 54 1013.3
20260502230140 58 155 0.0 0.0 0.00 0.00 0.00 53 1013.4
20260502224539 58 155 0.0 0.0 0.00 0.00 0.00 51 1013.2
20260502221542 58 146 0.0 0.0 0.00 0.00 0.00 51 1012.8
20260502220042 58 146 0.0 0.0 0.00 0.00 0.00 51 1012.7
20260502214537 58 146 0.0 0.0 0.00 0.00 0.00 52 1012.5
20260502211544 58 146 0.0 0.0 0.00 0.00 0.00 52 1012.6
20260502210035 58 146 0.0 0.0 0.00 0.00 0.00 51 1012.6
20260502204541 58 146 0.0 0.0 0.00 0.00 0.00 51 1012.8
20260502201530 57 146 0.0 0.0 0.00 0.00 0.00 54 1012.9
20260502200028 57 146 0.0 0.0 0.00 0.00 0.00 54 1013.4
20260502194525 56 144 0.0 0.0 0.00 0.00 0.00 55 1013.5
20260502191524 55 144 0.0 0.0 0.00 0.00 0.00 55 1013.8
20260502190021 55 144 0.0 0.0 0.00 0.00 0.00 55 1014.2
20260502184522 55 139 0.0 0.0 0.00 0.00 0.00 56 1014.2
20260502181522 55 139 0.0 0.0 0.00 0.00 0.00 54 1014.1
20260502161511 53 199 0.0 0.0 0.00 0.00 0.00 58 1015.4
20260502151509 53 192 0.0 0.0 0.00 0.00 0.00 56 1015.7
20260502121601 53 244 0.0 0.0 0.00 0.00 0.00 77 1014.7
20260502120111 53 244 0.0 0.0 0.00 0.00 0.00 77 1014.6
20260502114602 52 244 0.0 0.0 0.00 0.00 0.00 78 1014.3
20260502111600 52 244 0.0 0.0 0.00 0.00 0.00 79 1014.2
20260502110056 52 244 0.0 0.0 0.00 0.00 0.00 79 1014.4
20260502104555 52 244 0.0 0.0 0.00 0.00 0.00 80 1014.3
20260502101555 52 244 0.0 0.0 0.00 0.00 0.00 81 1014.6
20260502100113 52 244 0.0 0.0 0.00 0.00 0.00 81 1014.5
20260502070040 53 244 0.0 0.0 0.00 0.00 0.00 83 1013.4
20260502064541 53 244 0.0 0.0 0.00 0.00 0.00 83 1013.6
20260502061539 53 244 0.0 0.0 0.00 0.00 0.00 83 1014.0
20260502060037 53 244 0.0 0.0 0.00 0.00 0.00 82 1014.2
20260502054537 53 244 0.0 0.0 0.00 0.00 0.00 82 1013.9
20260502051557 53 244 0.0 0.0 0.00 0.00 0.00 81 1013.7
20260502050035 53 244 0.0 0.0 0.00 0.00 0.00 81 1013.7
20260502044535 54 244 0.0 0.0 0.00 0.00 0.00 81 1013.9
20260502041535 54 244 0.0 0.0 0.00 0.00 0.00 79 1014.0
20260502040035 54 244 0.0 0.0 0.00 0.00 0.00 79 1013.9
20260502034543 54 255 0.0 0.0 0.00 0.00 0.00 79 1014.1